Flag for Israel Weather past 2 weeks in Ramat Gan, Israel

Now
81 °F

Clear.


Feels Like: 83 °F
Forecast: 76 / 85 °F
Wind: 9 mph from Northwest

Location: Dov Airport

Current Time: Sep 18, 2014 at 8:44:14 PM

Latest Report: Sep 18, 2014 at 7:50 PM


Visibility: 10 mi

Pressure: 29.92 "Hg

Humidity: 66%

Dew point: 68 °F

Location of Ramat GanLocation

Historic Weather in Ramat Gan — Graph

°F

Ramat Gan temperature yesterday

Maximum temperature yesterday: 91 °F (at 3:50 PM)
Minimum temperature yesterday: 75 °F (at 5:50 AM)
Average temperature yesterday: 85 °F

Past Weeks' High & Low Weather Summary

 TemperatureHumidityPressure
High91 °F (Sep 17, 3:50 PM)83% (Sep 5, 4:50 AM)29.92 "Hg (Sep 5, 4:50 AM)
Low75 °F (Sep 10, 6:50 AM)31% (Sep 17, 9:50 AM)29.68 "Hg (Sep 17, 3:50 PM)
Average83 °F63%29.83 "Hg
* Reported Sep 3 6:50 PM — Sep 18 6:50 PM, Ramat Gan, Weather by CustomWeather, © 2014

Note: Actual official high and low records may vary slightly from our data, if they occured in-between our weather recording intervals... More about our weather records

Advertising

Ramat Gan weather history for previous 24 hours

 ConditionsComfort  
Time TempWeatherWind HumidityBarometerVisibility
6:50 PM
Sep 18
82 °FPassing clouds.12 mph58%29.89 "HgN/A
5:50 PM84 °FPassing clouds.12 mph58%29.89 "HgN/A
4:50 PM84 °FPassing clouds.13 mph58%29.89 "HgN/A
3:50 PM86 °FScattered clouds.13 mph55%29.89 "HgN/A
2:50 PM86 °FPassing clouds.13 mph52%29.89 "HgN/A
1:50 PM86 °FPassing clouds.13 mph55%29.89 "HgN/A
12:50 PM86 °FPassing clouds.10 mph55%29.89 "HgN/A
11:50 AM84 °FPassing clouds.9 mph58%29.89 "HgN/A
10:50 AM84 °FPassing clouds.8 mph58%29.89 "HgN/A
9:50 AM84 °FScattered clouds.6 mph58%29.89 "HgN/A
8:50 AM82 °FPartly sunny.6 mph62%29.86 "HgN/A
7:50 AM81 °FScattered clouds.6 mph66%29.86 "HgN/A
6:50 AM81 °FPassing clouds.7 mph70%29.86 "HgN/A
5:50 AM81 °FPassing clouds.5 mph66%29.83 "HgN/A
5:00 AM81 °FPassing clouds.5 mph66%29.83 "HgN/A
10:50 PM
Sep 17
82 °FPassing clouds.14 mph74%29.80 "HgN/A
9:50 PM82 °FPassing clouds.13 mph70%29.77 "HgN/A
8:50 PM84 °FPassing clouds.12 mph70%29.77 "HgN/A
Weather by CustomWeather, © 2014

See weather overviewHow to use our weather pages